GFSSGP_700_rhum_297.txt.gz
RH
3 3 11 29 45 50 63 68 68 66 60 60 61 58 56 70 59 65 68 58 33 26 29 20 13 12 12 12 12 12 14 15 14 14 14 12 11 22 24 24 22 27 17 15 15 16 16 16 15
18 10 29 42 62 77 80 74 78 78 81 68 64 72 69 71 86 84 68 46 28 22 21 15 12 12 12 12 12 12 14 15 14 14 13 11 10 17 15 16 15 14 13 13 13 12 12 11 10
34 27 44 63 78 100 97 88 82 97 83 72 62 69 59 81 83 68 54 38 30 21 17 14 13 12 12 12 12 12 13 15 14 14 12 10 9 11 12 13 11 10 11 11 11 11 12 12 13
34 38 61 63 93 94 77 75 84 82 79 79 70 60 70 80 81 53 46 35 32 20 16 14 13 13 12 12 12 12 13 13 14 14 12 10 9 10 11 12 10 10 10 11 12 12 13 16 22
34 40 54 66 88 82 68 81 88 75 80 85 77 68 90 92 76 43 38 36 37 21 16 14 13 13 13 13 13 13 13 13 13 13 12 10 10 9 10 10 10 11 11 12 14 16 19 22 26
33 39 52 71 74 73 70 81 68 83 63 62 62 63 96 99 98 66 53 44 39 27 20 16 14 13 12 12 13 13 13 13 14 13 12 11 10 11 10 11 12 13 15 18 20 22 22 23 26
34 34 48 61 70 65 62 60 72 61 63 62 58 66 96 100 86 90 67 46 38 33 29 23 19 16 14 13 13 13 13 13 13 14 12 11 11 11 12 13 16 20 22 22 23 24 24 25 26
29 31 40 46 61 71 73 60 66 61 54 71 63 99 100 98 94 82 81 60 37 34 30 30 26 25 22 18 15 14 13 13 13 13 14 12 11 12 14 18 22 23 24 26 27 27 26 25 24
27 26 33 35 37 63 81 58 71 73 57 66 75 93 98 100 99 100 90 48 40 44 47 39 40 33 30 28 23 18 16 14 13 13 13 14 12 12 14 20 22 24 26 29 31 33 34 34 33
26 28 29 32 45 55 61 69 73 77 74 67 81 83 89 98 100 100 95 70 60 93 75 85 96 62 62 52 33 32 25 20 16 14 12 13 13 12 15 20 22 26 28 31 33 34 35 36 36
27 23 34 45 48 53 54 58 76 81 74 87 85 78 97 98 93 91 68 80 83 88 77 79 82 78 99 97 69 58 47 36 30 20 16 14 12 12 12 18 23 25 30 32 33 34 33 32 34
25 38 32 41 40 37 38 45 47 49 53 58 73 86 90 98 100 100 99 96 88 91 85 93 75 99 74 70 80 75 76 71 63 45 28 22 16 14 12 13 20 25 28 31 33 33 35 34 34
27 38 39 42 38 35 36 35 35 42 46 47 48 49 50 56 70 76 77 81 81 74 69 67 66 65 68 75 79 79 84 79 72 65 60 61 41 21 15 14 14 20 26 30 32 33 33 34 33
34 37 40 39 36 34 30 30 30 33 34 30 29 29 30 32 35 37 39 40 38 37 39 44 45 49 54 55 56 56 58 61 70 73 85 70 84 73 45 19 16 15 18 25 30 33 34 35 34
34 29 31 27 26 26 24 23 22 24 24 18 14 12 10 8 6 5 5 6 7 9 13 18 20 22 23 28 30 32 36 42 48 57 62 76 92 90 86 84 62 20 17 18 24 29 32 32 34
30 27 25 20 15 13 12 40 46 43 35 16 11 9 7 5 5 4 4 3 3 2 2 2 2 2 3 5 9 14 17 21 26 30 36 45 56 79 80 92 98 96 75 31 18 21 28 31 30
16 15 14 16 17 14 14 28 35 33 25 19 12 11 6 4 4 4 4 3 3 3 3 3 3 2 2 2 2 2 2 3 5 9 19 26 30 40 77 92 78 84 98 97 77 46 21 23 29
17 15 15 14 12 15 16 23 33 31 29 24 17 25 10 7 6 5 4 3 3 3 3 3 4 3 3 3 3 4 3 3 4 4 4 4 12 22 26 30 40 64 81 93 97 96 84 39 35
15 13 12 17 24 25 31 27 29 38 38 33 28 28 24 19 14 6 4 4 4 3 3 2 2 2 2 2 4 6 6 5 6 6 5 5 6 5 4 11 20 24 26 47 69 89 95 87 88
18 16 20 28 31 28 35 35 40 43 43 40 39 32 28 24 10 7 5 4 4 4 4 3 3 2 2 2 3 5 8 11 12 13 13 11 10 8 7 6 6 4 6 13 21 26 36 62 86
14 11 11 17 28 36 42 51 50 48 44 44 43 35 30 27 14 10 6 5 4 4 4 4 3 2 2 3 8 16 16 14 15 14 14 12 11 11 11 10 9 8 6 6 5 13 24 52 76
16 17 16 22 22 32 40 35 45 44 43 43 43 37 32 29 22 13 8 6 5 5 5 4 4 3 3 3 4 5 7 11 15 18 19 18 16 13 11 9 9 10 10 9 8 9 24 25 32
15 14 20 26 25 25 43 41 29 37 33 31 41 36 31 31 29 17 15 10 6 5 6 5 4 4 4 4 4 5 6 9 12 14 14 14 14 13 13 12 11 9 7 9 10 10 13 33 65
13 6 9 16 21 28 22 36 26 23 20 27 39 34 34 33 28 21 22 14 7 6 6 6 6 5 4 4 5 5 6 6 8 8 9 9 9 8 8 9 10 9 9 7 8 10 12 10 30
6 11 31 46 50 39 26 35 25 25 26 38 44 42 39 33 24 26 20 14 11 9 7 8 8 7 6 5 5 5 5 5 5 5 6 6 7 7 8 8 8 8 9 10 10 11 10 15 13
12 19 25 44 68 46 32 33 32 30 35 45 48 46 35 32 29 28 22 19 16 15 12 9 10 11 10 8 7 6 5 4 4 3 3 3 3 2 2 4 7 8 9 9 12 16 18 14 18
17 17 19 31 48 41 31 38 37 29 32 38 38 35 35 30 30 28 26 21 20 20 18 17 17 17 17 18 16 11 8 7 6 5 4 4 5 5 3 3 2 2 3 6 8 10 18 22 21
13 15 23 17 34 50 31 34 24 25 28 34 36 36 31 32 34 29 25 22 22 23 24 26 22 24 28 25 25 22 18 13 10 8 7 6 6 6 6 5 4 3 3 3 5 10 12 18 24
11 15 17 16 23 40 71 29 23 29 29 32 34 32 33 36 35 32 29 30 30 27 29 39 37 38 37 36 34 32 30 28 22 15 10 9 8 8 8 8 7 5 4 4 4 5 12 18 20
9 13 17 16 23 30 51 21 21 24 30 33 32 37 37 37 34 33 35 38 38 36 42 47 56 56 57 53 41 35 34 35 36 31 26 17 12 11 12 12 11 10 8 6 5 6 9 14 20

GFSSGP_700_rhum_300.txt.gz
RH
2 2 5 34 52 55 79 97 91 89 85 86 82 80 81 82 67 76 65 50 44 28 28 18 14 13 13 13 13 16 18 16 16 15 15 18 29 29 25 22 25 26 16 15 16 15 15 15 15
2 3 16 55 61 82 97 92 72 85 99 76 82 91 81 86 88 79 54 47 39 24 19 14 13 13 14 13 13 15 18 16 15 14 12 11 22 21 20 16 13 12 13 13 12 12 11 11 11
6 8 34 62 80 98 99 79 72 95 91 83 69 74 70 90 83 71 60 41 26 22 16 14 13 13 14 14 13 14 15 15 14 13 11 11 13 14 17 14 12 11 10 11 12 12 13 14 13
23 41 48 66 97 100 98 87 84 97 95 86 75 72 80 80 81 80 48 38 26 18 14 14 14 13 14 14 14 14 14 14 14 13 11 11 11 12 14 13 11 11 11 11 12 14 20 21 21
44 45 51 99 99 100 81 69 68 80 87 83 81 82 94 85 78 65 43 31 28 19 15 14 14 13 13 13 14 14 14 14 13 12 10 11 10 12 11 11 12 12 13 14 16 19 24 25 26
42 43 64 97 99 99 92 85 65 93 90 87 77 68 79 72 86 69 50 36 33 26 18 15 14 14 14 14 13 13 13 13 13 12 11 10 11 11 12 12 13 15 18 20 21 22 24 27 28
33 36 68 87 95 79 87 75 60 75 80 76 68 66 84 93 84 70 66 46 38 33 28 23 19 17 16 15 14 14 14 13 12 12 11 10 11 12 12 14 18 21 22 22 22 23 23 26 28
31 34 66 88 82 83 91 88 91 64 70 69 66 97 100 99 91 90 76 64 46 40 39 36 36 29 25 20 17 15 14 14 13 13 11 11 11 12 15 19 21 22 24 26 25 24 24 24 24
27 30 54 73 78 95 100 82 89 82 65 64 59 96 93 99 98 85 67 62 57 49 46 46 52 47 41 37 31 24 19 16 15 15 14 11 11 11 15 21 24 25 25 26 28 30 28 27 27
24 26 40 60 69 87 99 90 86 92 88 82 91 96 92 100 90 99 99 76 53 78 99 98 99 80 90 76 64 38 34 31 22 16 16 14 12 11 13 20 23 25 28 30 31 30 31 30 26
26 30 56 63 62 76 83 83 90 88 88 99 100 100 100 100 99 99 100 100 100 95 87 74 85 99 94 100 98 80 64 61 54 43 21 17 16 13 13 17 22 24 27 30 32 34 33 31 31
20 43 43 56 57 56 62 72 77 72 74 92 96 98 99 98 99 100 99 98 95 92 88 87 86 82 87 86 73 74 87 98 74 70 64 40 26 18 16 14 19 23 26 28 30 32 33 34 32
25 36 38 39 38 36 39 41 38 50 53 51 50 48 47 51 62 68 70 70 68 64 63 63 60 58 57 57 57 62 69 70 72 72 76 75 71 74 32 19 15 18 24 27 29 31 32 32 32
34 36 38 38 34 33 29 30 28 30 28 24 22 24 26 27 29 31 30 28 28 30 30 31 33 35 36 36 36 40 45 50 54 60 63 81 72 87 80 82 33 17 17 24 28 30 32 32 31
37 25 32 29 29 26 19 16 17 22 22 17 14 9 7 5 5 4 3 3 3 2 2 2 2 2 4 8 14 18 21 24 28 33 38 47 56 61 94 83 91 84 64 20 22 29 32 33 34
29 26 26 24 18 16 10 19 20 14 17 11 7 6 5 4 4 4 3 3 3 3 2 2 2 2 2 2 2 2 2 3 6 9 17 25 30 35 40 50 81 89 93 98 92 34 38 34 36
27 27 25 21 15 12 11 16 17 15 16 14 20 8 12 11 6 5 4 4 4 4 3 3 3 3 2 2 2 2 3 3 3 3 3 4 6 14 24 28 33 40 82 87 92 97 97 52 46
15 21 18 13 12 12 14 15 16 24 26 27 26 24 22 12 8 7 6 5 5 4 4 4 3 3 2 2 2 4 4 4 5 5 5 4 4 4 4 5 11 22 26 30 40 61 96 99 98
13 12 12 12 16 21 23 19 20 29 37 40 32 31 26 17 12 11 8 6 5 5 5 4 4 3 2 2 3 5 6 5 5 6 6 7 7 6 6 5 5 5 4 7 14 23 28 40 91
15 14 16 22 21 26 25 26 28 31 35 36 37 35 29 28 18 15 12 8 6 6 5 5 4 4 3 2 2 2 3 6 8 10 10 9 9 8 8 7 7 6 6 6 5 5 5 16 33
16 11 12 17 23 27 32 33 25 26 28 36 41 41 34 30 29 19 18 16 9 6 6 6 5 5 4 3 3 4 5 8 10 11 10 10 11 12 12 11 10 10 9 8 7 7 6 6 20
12 13 13 17 18 28 29 32 21 24 30 34 40 44 40 34 32 23 21 19 14 8 6 6 6 6 5 5 4 3 3 3 4 4 4 4 5 6 6 7 8 8 9 10 10 8 8 8 8
16 20 18 20 24 24 35 37 18 20 24 24 35 39 42 36 34 24 24 19 12 8 7 7 8 7 6 6 6 6 4 4 4 4 4 5 4 4 4 4 4 4 5 6 8 9 8 8 8
16 15 15 22 24 24 19 28 16 16 19 23 27 32 41 38 34 26 25 18 13 12 12 8 9 10 9 8 8 8 7 6 5 4 3 3 3 3 2 2 2 2 3 3 4 5 7 8 8
15 9 20 39 47 37 27 36 15 19 22 24 29 34 44 44 33 28 27 22 18 17 16 13 14 16 16 15 14 12 10 9 8 7 6 6 5 5 5 4 4 3 2 2 2 2 4 5 7
12 10 19 37 58 38 40 32 24 22 24 27 33 44 49 44 33 29 29 25 22 21 22 19 20 21 20 25 23 21 19 15 14 12 10 9 9 8 8 7 6 6 4 3 3 2 2 2 4
15 19 20 26 45 43 33 32 30 26 27 27 36 39 44 36 32 30 31 27 25 25 24 22 23 25 24 27 30 30 28 26 22 20 18 16 13 11 10 10 9 8 8 6 5 4 3 2 2
14 17 21 19 25 39 21 21 14 14 19 24 26 34 37 34 32 34 34 29 28 28 30 26 25 27 29 30 33 33 32 31 31 30 27 24 23 22 17 14 12 11 10 9 8 6 4 3 3
14 14 15 16 17 32 60 16 16 16 24 29 34 38 34 33 33 37 34 34 34 33 32 29 30 35 41 40 41 35 31 32 36 39 43 41 33 29 27 24 20 16 14 12 11 10 8 6 4
10 12 14 20 19 24 40 16 14 16 20 28 34 34 34 34 39 38 38 36 36 37 39 39 40 44 44 44 47 50 47 46 45 47 50 50 50 45 41 34 35 30 27 20 15 13 12 12 10

GFSSGP_700_rhum_303.txt.gz
RH
3 3 4 39 47 66 97 99 96 96 88 74 70 94 97 80 93 95 79 61 53 43 26 17 14 15 15 14 16 18 16 16 14 12 14 27 24 26 25 28 24 19 16 14 16 15 16 15 13
7 14 22 46 71 89 98 99 97 95 99 89 78 86 82 76 82 84 63 67 61 27 19 15 14 15 14 14 16 18 16 15 13 11 10 14 17 21 18 15 16 16 17 13 13 13 12 12 12
25 35 33 46 89 99 99 100 100 91 99 98 76 79 71 81 84 81 81 68 28 20 15 15 15 15 14 14 15 17 16 14 13 10 10 10 12 15 13 12 13 13 12 13 15 16 16 14 16
48 49 36 69 98 100 98 100 100 99 99 94 78 66 78 99 97 90 52 31 24 17 15 15 15 15 14 14 14 14 15 14 12 10 10 9 11 12 12 11 12 13 13 14 20 23 23 23 24
49 40 54 80 88 94 66 68 83 99 84 98 89 80 89 93 83 56 40 31 25 20 16 15 15 14 14 14 14 14 14 14 12 10 10 9 10 10 11 12 12 13 15 18 23 25 26 26 26
40 41 69 88 95 78 72 73 74 91 80 90 85 75 84 78 78 55 48 50 41 31 22 18 16 15 15 14 15 14 14 14 13 12 10 10 10 10 11 12 13 16 18 20 23 26 27 27 27
32 36 97 98 95 94 70 84 100 90 80 73 67 74 79 76 59 62 54 48 48 47 39 31 25 21 17 16 16 16 15 15 15 12 11 10 10 11 11 13 17 20 20 20 22 25 28 30 30
35 34 96 100 88 87 86 86 100 94 69 73 61 81 92 99 99 96 78 77 72 52 51 49 47 46 42 33 23 18 16 16 16 16 12 11 11 12 13 16 20 21 22 22 22 23 26 29 31
32 40 83 94 84 88 96 83 100 100 77 78 76 95 97 100 99 99 88 75 76 58 57 56 60 73 62 65 54 40 30 22 18 17 16 14 12 12 15 19 22 22 23 23 24 27 28 30 31
28 49 73 77 76 96 99 89 89 98 95 87 100 100 98 99 92 95 100 98 79 63 100 85 97 80 87 100 90 64 48 46 40 26 18 17 16 13 14 19 23 24 24 25 26 27 26 28 30
29 35 78 91 86 92 92 92 98 99 98 98 98 99 86 100 100 100 99 100 96 80 75 88 71 66 77 93 89 77 64 73 80 67 55 28 19 18 15 16 22 25 27 27 28 30 30 28 28
26 62 61 78 91 88 81 82 86 94 90 94 98 97 98 98 97 95 96 90 81 76 76 70 66 65 64 74 74 64 71 77 77 97 78 71 54 36 23 19 17 22 26 29 30 31 31 30 30
28 42 45 59 68 65 62 53 46 63 59 53 52 46 44 46 46 47 45 44 41 39 38 34 32 33 34 37 41 44 48 52 56 61 62 85 98 84 80 63 29 21 20 25 29 31 33 32 30
32 35 42 45 39 39 37 42 42 41 32 23 20 17 16 16 14 10 7 5 4 3 2 2 2 2 2 4 7 12 18 26 32 35 39 44 55 71 74 94 86 81 37 21 24 28 31 34 33
36 28 36 32 31 24 26 24 17 15 13 13 8 6 4 4 4 4 3 3 3 3 3 3 3 3 2 2 2 2 2 3 5 10 17 24 29 35 41 51 57 80 96 74 79 36 30 32 33
30 28 28 28 22 14 15 20 16 14 13 7 5 5 5 5 4 4 4 4 4 4 4 4 4 3 3 3 3 2 2 3 3 3 2 3 4 9 19 27 31 33 39 80 71 95 99 70 37
24 26 21 20 13 10 11 15 13 11 22 12 10 17 10 7 7 6 6 5 5 5 5 5 4 4 4 3 3 2 2 2 2 3 3 3 3 3 3 4 6 13 22 28 30 43 76 84 100
17 23 19 13 11 12 11 12 12 19 21 29 24 22 14 12 12 10 8 7 6 6 6 5 5 4 4 3 3 3 3 3 3 3 4 4 4 5 5 5 5 4 4 5 9 18 26 29 51
10 12 12 11 10 16 16 16 19 19 27 27 30 24 21 16 15 15 13 11 9 7 6 6 5 5 4 3 3 2 2 2 3 4 6 6 7 7 6 6 6 6 5 5 5 5 5 7 16
11 10 9 13 16 18 16 16 21 28 32 31 33 29 27 27 25 18 18 15 13 10 8 7 6 6 5 4 4 3 3 2 2 3 4 7 9 9 9 9 9 8 8 7 6 6 6 6 5
14 12 11 16 17 18 23 25 20 26 30 29 30 36 31 31 31 24 22 20 14 11 9 8 7 7 7 6 6 5 4 4 3 3 3 3 2 3 3 4 4 4 6 6 6 7 7 7 8
13 15 12 14 20 25 19 25 14 19 25 26 27 35 37 35 34 29 25 22 15 12 11 10 8 7 8 8 7 6 6 5 5 4 4 4 3 3 2 2 2 2 2 2 2 4 6 6 7
15 15 17 21 20 19 19 29 13 14 17 19 23 30 42 38 36 31 27 24 17 14 14 14 12 9 8 9 10 10 9 8 7 7 6 6 6 6 6 6 5 5 4 3 2 2 2 3 5
17 17 18 19 18 23 19 23 11 13 15 22 25 26 37 42 40 33 29 26 21 17 16 15 14 13 12 12 12 14 14 12 11 10 9 8 8 8 8 8 8 8 7 6 6 5 4 3 2
18 16 14 24 30 28 26 32 9 15 17 22 25 28 36 46 44 34 30 28 24 22 20 18 18 18 18 18 19 20 18 16 14 14 14 13 12 11 10 10 10 10 10 9 9 8 6 5 4
17 12 12 38 31 30 33 33 17 15 17 21 24 28 41 48 46 35 32 32 28 26 25 24 22 25 28 29 29 28 26 22 21 19 18 18 18 17 16 17 16 15 14 12 12 10 9 7 6
14 12 12 20 34 43 29 23 16 19 20 22 23 29 38 50 43 34 33 35 31 29 27 27 26 27 33 37 36 35 32 28 26 25 26 25 23 21 20 19 18 20 20 18 15 14 12 11 9
12 14 20 17 45 41 21 14 9 12 13 16 22 27 39 45 38 34 37 37 34 31 31 33 32 33 36 40 41 37 36 34 31 29 30 29 29 29 27 25 23 22 20 21 22 21 18 15 13
14 13 13 15 14 33 25 14 11 11 13 18 25 31 37 40 36 36 38 38 36 34 36 38 41 38 36 39 39 38 40 40 38 36 36 36 33 38 34 27 24 27 30 31 28 30 30 25 21
12 14 13 13 17 21 29 15 11 11 11 16 22 32 39 36 35 36 38 38 38 35 38 40 44 43 43 44 44 40 38 41 45 48 49 52 50 51 53 49 42 41 38 40 40 40 38 37 36

GFSSGP_700_rhum_309.txt.gz
RH
5 5 7 39 42 81 72 91 92 79 77 100 85 60 69 76 83 100 86 79 59 51 17 15 15 14 15 20 19 15 16 17 27 43 35 39 33 23 24 22 19 20 15 14 13 12 12 14 20
6 11 28 44 57 71 99 98 87 87 87 91 60 75 71 78 90 96 87 88 66 24 17 16 15 14 15 17 18 15 14 11 12 32 30 34 42 36 27 29 22 16 14 14 13 12 14 20 25
23 42 52 37 54 79 98 97 92 98 98 96 66 75 69 90 98 96 85 68 26 18 17 16 15 16 15 16 17 17 14 12 10 10 13 16 15 34 41 42 31 21 25 19 15 15 19 25 26
55 50 72 60 81 99 97 96 83 82 80 83 74 72 88 99 94 80 38 25 19 18 18 17 16 16 16 16 16 16 16 14 11 10 9 12 14 12 13 15 49 54 20 24 21 21 25 27 27
53 44 73 99 98 97 73 60 60 52 74 84 76 73 74 88 63 34 29 29 28 25 21 19 18 17 16 16 16 16 16 15 13 11 11 10 11 12 12 13 14 17 21 24 26 26 27 26 26
49 58 72 92 98 86 59 57 64 58 90 90 97 74 76 56 34 41 50 52 54 49 42 40 33 28 23 19 17 16 16 16 15 12 11 11 11 11 12 13 15 18 22 24 26 27 26 26 26
46 50 62 77 60 66 85 83 60 76 87 91 88 80 64 46 46 53 54 54 52 50 49 50 48 45 43 41 35 28 19 16 16 16 14 12 11 11 12 13 16 21 23 24 25 25 26 27 27
42 51 62 66 78 77 70 60 84 94 91 96 79 82 66 52 52 64 72 69 68 56 52 54 53 54 63 78 76 64 42 30 21 17 16 16 13 12 13 14 17 21 23 25 26 26 27 27 28
48 46 53 62 74 62 78 85 96 98 84 73 72 61 57 72 98 91 76 66 72 72 90 97 78 81 75 80 90 96 69 51 52 41 28 20 20 16 14 14 18 21 22 24 27 28 29 30 31
46 47 61 71 72 88 97 98 81 72 77 81 85 86 93 93 93 96 99 98 96 81 76 74 79 76 74 72 76 82 83 75 75 78 76 62 41 51 33 23 16 18 24 25 26 28 32 34 34
49 65 85 91 86 91 91 95 78 89 81 97 98 97 97 97 96 98 99 94 88 76 70 68 69 64 58 56 56 60 66 62 60 63 83 99 98 82 44 23 21 40 25 34 52 27 30 31 34
72 84 86 88 92 89 87 88 84 81 96 99 99 93 78 90 89 90 89 80 73 48 36 28 23 19 16 16 17 19 25 32 36 38 48 58 96 88 91 95 78 67 28 29 33 88 87 30 33
78 80 79 80 76 76 75 77 69 91 95 89 89 82 81 82 74 53 44 30 13 3 2 2 2 2 2 2 2 2 2 2 3 6 11 21 31 37 47 78 97 98 96 92 53 30 37 56 52
71 65 71 79 83 83 76 75 74 78 83 78 66 51 42 29 15 7 4 2 2 3 3 4 4 4 4 4 4 4 4 3 3 2 2 2 4 9 16 24 28 51 56 74 98 97 97 62 51
56 48 57 52 46 45 47 48 48 65 53 34 22 13 6 4 3 3 4 4 5 5 6 6 6 6 6 5 5 4 4 4 3 3 3 2 2 2 3 4 8 16 24 29 35 69 86 92 59
37 34 32 40 40 32 30 41 24 29 17 8 5 4 4 4 5 6 6 7 7 7 8 7 7 6 5 5 4 4 3 3 3 3 2 2 2 3 3 3 3 3 4 8 16 24 29 30 54
30 24 29 31 30 21 33 37 11 11 24 6 5 5 6 7 8 9 9 9 9 9 8 8 8 7 6 5 5 4 4 3 3 2 2 2 2 2 3 3 4 4 5 4 4 4 5 7 17
19 23 26 23 22 26 25 28 17 10 25 14 11 16 12 12 12 12 12 11 10 10 9 9 9 8 7 6 6 5 5 4 4 3 2 2 2 2 3 4 6 5 5 5 5 4 4 4 4
19 20 19 22 22 22 23 31 34 16 33 39 41 40 28 22 14 15 15 13 11 9 9 9 9 9 8 7 7 7 6 6 5 5 4 3 2 2 2 2 3 4 5 5 5 5 5 4 4
17 17 20 22 19 28 24 26 32 36 36 39 40 43 44 26 20 18 17 17 15 12 11 10 10 10 10 8 8 8 8 8 8 7 6 6 5 4 3 3 2 2 2 2 2 2 2 3 3
14 14 19 17 20 24 21 23 29 34 37 39 42 43 44 34 24 22 22 20 19 16 14 13 12 11 11 10 10 10 10 15 10 9 8 8 7 7 6 6 6 6 5 4 4 3 2 2 2
18 19 19 20 18 15 20 15 26 30 35 40 41 26 36 38 32 31 27 25 24 22 18 15 14 13 12 12 12 12 12 13 12 12 11 10 9 8 8 8 8 8 7 7 7 6 6 5 4
23 18 20 19 18 17 19 14 15 24 29 34 34 28 32 40 31 31 32 29 26 25 22 19 17 16 16 15 14 15 16 16 15 15 14 13 12 12 11 10 10 9 9 8 8 8 8 7 7
9 22 23 22 19 19 15 17 18 20 21 29 36 42 48 44 37 35 34 34 30 28 25 22 20 19 18 18 18 17 18 19 20 20 20 18 17 16 14 14 13 12 11 11 10 9 9 8 8
26 26 32 26 25 26 17 17 13 22 20 24 29 40 48 46 34 34 38 39 34 30 28 27 25 25 25 23 23 23 23 24 24 25 24 24 23 22 20 19 17 16 14 12 11 11 10 9 8
26 28 54 46 21 16 18 12 22 26 16 10 27 37 48 47 34 37 47 47 41 32 31 31 29 31 35 32 31 30 29 28 27 30 33 30 29 26 23 21 22 22 23 22 19 16 14 12 11
27 35 35 35 28 14 8 14 18 12 9 10 11 35 47 48 39 44 58 51 41 43 40 34 36 34 34 34 34 33 35 38 39 39 38 41 40 39 37 30 27 24 23 23 23 22 21 18 14
33 35 30 41 96 43 11 11 13 25 22 11 10 13 43 40 44 52 61 62 56 56 38 35 37 37 35 36 38 39 40 41 42 44 45 46 44 41 36 30 29 29 28 25 24 23 19 18 16
19 30 30 40 38 32 17 12 14 20 24 20 12 10 19 25 44 55 63 70 55 36 35 37 38 40 39 39 41 41 40 42 44 45 46 47 42 36 29 26 26 27 26 26 25 21 19 17 15
34 31 34 20 24 32 28 21 16 12 7 8 25 9 13 27 53 61 66 53 37 34 36 38 38 40 41 43 45 45 43 45 48 49 46 38 31 26 25 24 22 21 21 20 19 19 17 15 12

GFSSGP_700_rhum_315.txt.gz
RH
9 65 46 48 52 57 66 84 80 80 57 60 64 60 52 50 61 86 95 62 22 14 16 14 14 14 14 14 12 11 10 14 26 40 46 38 35 30 28 32 37 32 12 12 12 16 23 26 25
45 51 47 53 66 46 60 98 89 58 65 66 61 60 67 59 62 87 72 44 14 14 15 15 14 14 14 14 13 12 10 9 10 13 14 22 38 30 36 36 37 42 32 12 14 19 25 25 24
52 46 48 44 56 61 54 82 60 62 66 71 51 64 52 57 58 65 40 13 15 16 15 15 15 15 14 14 14 14 12 10 9 9 11 14 12 14 27 38 47 34 20 15 16 22 26 27 25
42 44 32 38 59 65 93 100 92 76 65 64 63 54 62 75 61 30 15 16 15 15 16 17 17 17 16 16 15 15 15 13 11 9 9 10 12 12 13 14 15 19 23 21 21 24 26 27 27
35 39 41 56 83 100 97 99 87 71 67 68 66 56 60 64 31 16 15 17 19 21 25 26 31 32 31 29 25 20 17 16 16 12 10 10 10 11 12 14 15 18 22 25 27 27 27 26 27
26 33 51 82 100 99 97 100 84 77 73 78 67 62 56 43 18 18 19 26 28 30 32 35 38 46 48 54 53 48 34 23 18 16 15 12 11 10 11 12 15 18 22 24 26 28 28 28 29
52 24 69 66 97 97 95 82 65 72 76 73 68 57 46 27 27 37 30 31 28 30 36 44 45 55 56 59 57 52 63 46 44 37 25 18 16 14 12 12 14 18 20 22 24 26 29 31 31
57 39 72 96 94 98 98 77 74 86 82 68 62 57 45 29 30 32 30 34 35 44 54 58 57 59 58 62 60 58 59 56 59 59 59 56 43 27 28 15 14 18 22 23 22 22 24 27 29
56 51 72 92 92 75 77 69 75 78 69 74 64 61 48 37 39 54 39 42 54 55 62 62 56 58 63 63 61 63 62 66 68 68 67 68 65 62 55 48 19 15 18 23 26 25 23 24 29
50 41 55 59 69 62 71 70 70 72 61 60 54 52 47 48 50 52 43 60 67 56 51 49 41 35 34 27 24 23 17 23 29 30 42 52 66 64 57 61 65 40 29 31 25 25 28 28 27
52 47 58 62 53 58 64 70 70 67 64 69 71 65 68 68 61 53 55 59 58 38 15 5 2 2 2 2 2 2 2 2 3 4 5 12 23 37 41 29 59 76 72 43 29 45 69 54 37
50 60 57 55 54 49 56 54 56 66 64 61 56 57 60 62 70 62 52 34 10 2 2 3 4 4 4 4 5 5 5 4 4 4 3 3 3 5 10 16 34 33 40 44 74 88 66 36 56
55 57 54 54 56 49 48 56 55 68 68 65 68 65 66 70 52 34 13 2 2 4 5 6 7 7 7 7 7 7 6 6 6 5 5 4 4 3 3 3 3 5 6 11 33 36 68 83 89
76 75 74 79 60 59 62 60 67 63 61 64 65 63 53 40 24 7 2 4 6 8 8 9 9 8 8 7 7 6 6 6 5 5 4 4 4 4 3 3 3 3 2 2 4 7 18 28 46
66 57 62 63 61 58 45 39 49 53 56 50 50 44 32 18 3 2 4 8 8 9 10 9 8 8 7 7 6 6 6 5 5 4 4 4 3 3 3 2 2 2 2 2 2 2 2 2 6
49 55 52 54 51 37 34 32 36 46 45 38 32 25 9 2 3 6 8 9 10 10 9 8 7 6 6 6 6 6 6 5 5 4 4 4 3 3 3 3 2 2 2 1 1 1 2 2 2
32 33 33 43 31 28 34 36 27 17 17 21 15 6 3 3 6 8 9 11 12 11 10 9 8 7 6 7 7 7 6 6 6 5 5 4 4 4 4 4 4 3 3 2 2 1 1 1 1
26 33 30 24 27 27 23 32 31 12 8 9 4 4 4 6 9 11 11 13 14 14 14 12 10 9 8 7 7 7 7 7 7 7 6 6 6 6 6 6 5 5 5 4 4 4 3 2 2
19 27 22 22 18 17 22 22 26 21 6 8 6 6 8 8 13 13 14 15 16 16 16 16 14 12 11 10 9 8 8 8 8 8 8 8 8 7 7 7 6 6 6 5 5 5 4 4 3
21 21 20 19 11 20 23 21 23 22 5 9 14 18 18 14 14 16 15 15 17 19 18 17 17 16 14 14 12 12 10 9 9 8 8 9 9 9 9 9 8 8 7 7 7 6 5 4 3
17 18 18 15 11 22 23 23 22 19 12 16 28 30 30 21 16 12 14 16 17 23 23 21 20 20 18 17 16 15 15 14 13 13 11 10 10 11 11 11 10 10 9 9 8 8 6 6 5
15 17 16 16 16 17 20 21 21 21 20 20 31 35 31 21 14 11 13 19 20 27 28 26 23 22 20 19 19 19 19 18 18 17 17 16 16 14 13 15 15 13 12 11 10 9 8 8 7
16 16 16 18 14 16 19 18 13 20 24 22 23 30 28 26 20 19 15 17 18 27 32 30 25 22 21 21 21 21 21 22 22 22 22 21 25 27 23 21 20 20 20 19 16 14 12 11 10
18 18 13 17 18 21 15 19 17 18 14 19 20 22 26 28 28 25 24 16 17 24 31 35 30 26 24 21 19 21 22 23 24 26 27 30 31 33 40 38 33 30 26 23 21 18 17 16 14
15 22 31 36 42 32 17 18 16 16 20 21 19 19 20 21 21 23 22 22 25 28 34 42 33 28 26 24 25 29 29 29 28 30 32 34 35 38 39 40 41 39 34 29 26 23 20 19 19
12 25 50 54 69 39 21 17 16 17 23 23 23 21 25 28 28 26 26 34 33 26 28 38 41 35 32 29 32 34 35 36 33 34 35 36 36 38 40 44 44 38 34 30 26 24 22 20 19
17 27 30 36 36 36 23 19 20 20 20 20 18 21 26 29 30 31 34 42 40 44 48 45 41 37 35 31 32 34 36 39 40 40 40 40 40 41 44 42 35 30 27 25 24 23 22 21 20
22 22 31 33 32 53 23 14 20 21 17 16 10 11 22 32 35 37 40 44 45 56 62 52 44 31 34 34 35 36 38 40 40 43 44 44 45 46 41 33 29 25 23 21 20 18 16 15 14
20 30 31 30 18 59 71 22 24 23 22 18 13 12 26 34 38 42 45 50 55 56 60 56 44 35 40 35 38 38 39 40 42 45 45 50 48 40 32 28 24 21 16 11 9 8 8 7 7
10 18 30 30 26 31 42 20 19 24 24 24 24 20 21 34 43 48 53 57 54 55 52 46 31 33 40 37 40 40 39 41 44 46 50 46 40 31 25 21 16 12 8 7 7 6 6 6 6